Flag for Poland Weather past 2 weeks in Bielsko-Biała, Poland

Now
55 °F

Fog.


Feels Like: 55 °F
Forecast: 53 / 69 °F
Wind: 1 mph from South

Location: Katowice

Current Time: Aug 31, 2014 at 8:44:20 AM

Latest Report: Aug 31, 2014 at 7:00 AM


Visibility: 0 mi

Pressure: 30.02 "Hg

Humidity: 97%

Dew point: 54 °F

Location of Bielsko-BiałaLocation

Historic Weather in Bielsko-Biała — Graph

°F

Bielsko-Biała temperature yesterday

Maximum temperature yesterday: 72 °F (at 4:00 PM)
Minimum temperature yesterday: 57 °F (at 6:00 AM)
Average temperature yesterday: 64 °F

Past Weeks' High & Low Weather Summary

 TemperatureHumidityPressure
High72 °F (Aug 18, 1:00 PM)98% (Aug 20, 2:00 AM)30.14 "Hg (Aug 20, 2:00 AM)
Low44 °F (Aug 25, 6:00 AM)38% (Aug 29, 2:00 PM)29.75 "Hg (Aug 26, 6:00 PM)
Average58 °F79%29.98 "Hg
* Reported Aug 16 7:00 AM — Aug 31 7:00 AM, Bielsko-Biała, Weather by CustomWeather, © 2014

Note: Actual official high and low records may vary slightly from our data, if they occured in-between our weather recording intervals... More about our weather records

Advertising

Bielsko-Biała weather history for previous 24 hours

 ConditionsComfort  
Time TempWeatherWind HumidityBarometerVisibility
7:00 AM
Aug 31
55 °FFog.1 mph97%30.02 "Hg0 mi
6:00 AM56 °FFog.1 mph97%30.02 "Hg1 mi
5:00 AM56 °FFog.No wind96%30.03 "Hg2 mi
4:00 AM57 °FFog.No wind95%30.03 "Hg4 mi
3:00 AM58 °FPassing clouds.1 mph95%30.04 "Hg6 mi
2:00 AM59 °FPassing clouds.1 mph93%30.04 "Hg9 mi
1:00 AM60 °FPassing clouds.3 mph91%30.04 "Hg9 mi
12:00 AM62 °FOvercast.3 mph85%30.05 "Hg12 mi
11:00 PM
Aug 30
62 °FPassing clouds.3 mph86%30.05 "Hg12 mi
10:00 PM62 °FPassing clouds.3 mph87%30.05 "Hg12 mi
9:00 PM61 °FPassing clouds.2 mph86%30.05 "Hg12 mi
8:00 PM65 °FOvercast.1 mph83%30.03 "Hg12 mi
7:00 PM67 °FPartly sunny.1 mph79%30.02 "Hg12 mi
6:00 PM69 °FPartly sunny.2 mph70%30.02 "Hg12 mi
5:00 PM71 °FScattered clouds.2 mph59%30.02 "Hg12 mi
4:00 PM72 °FScattered clouds.2 mph58%30.03 "Hg12 mi
3:00 PM71 °FPartly sunny.3 mph65%30.04 "Hg12 mi
2:00 PM69 °FPartly sunny.2 mph71%30.06 "Hg12 mi
1:00 PM69 °FPartly sunny.2 mph68%30.06 "Hg12 mi
12:00 PM69 °FOvercast.3 mph73%30.07 "Hg12 mi
11:00 AM67 °FPartly sunny.3 mph74%30.06 "Hg12 mi
10:00 AM65 °FOvercast.2 mph77%30.07 "Hg12 mi
9:00 AM64 °FPartly sunny.3 mph82%30.06 "Hg12 mi
8:00 AM60 °FOvercast.2 mph91%30.06 "Hg9 mi
Weather by CustomWeather, © 2014

See weather overviewHow to use our weather pages